Regional Weather Roundup
Issued by NWS

Home | Current Version | Previous Version | Graphics & Text | Print | Product List | Glossary On
Versions: 1 2 3 4 5 6 7 8 9 10 11 12 13 14 15 16 17 18 19 20 21 22 23 24 25 26 27 28 29 30 31 32 33 34 35 36 37 38 39 40 41 42 43 44 45 46 47 48 49 50
000
ASUS43 KFSD 221602
RWRSD

WEATHER ROUNDUP FOR SOUTH DAKOTA
NATIONAL WEATHER SERVICE SIOUX FALLS SD
1100 AM CDT SAT JUL 22 2017

NOTE: "FAIR" INDICATES FEW OR NO CLOUDS BELOW 12,000 FEET WITH NO
SIGNIFICANT WEATHER AND/OR OBSTRUCTIONS TO VISIBILITY.


SDZ001>005-009-010-012>017-221700-
NORTHWEST AND NORTH CENTRAL SOUTH DAKOTA

CITY           SKY/WX    TMP DP  RH WIND       PRES   REMARKS
BUFFALO          N/A     78  48  34 W12       30.03S
FAITH            N/A     81  55  40 NW6       30.04R
MOBRIDGE       SUNNY     80  66  62 NW8       29.95S
$$

SDZ012>016-024>037-041>051-057-063-072>074-221700-
SOUTHWEST AND SOUTH CENTRAL SOUTH DAKOTA

CITY           SKY/WX    TMP DP  RH WIND       PRES   REMARKS
RAPID CTY ARPT CLOUDY    79  44  28 N15       30.08R
PIERRE         MOSUNNY   82  63  52 N12       29.94F
CUSTER         PTSUNNY   79  32  18 VRB6      30.20S
ELLSWORTH AFB  CLOUDY    76  44  31 N13       30.07R
PHILIP         CLOUDY    90  46  21 N13       29.98S
PINE RIDGE     CLOUDY    81  58  45 CALM      30.06R
SPEARFISH      FAIR      79  39  24 VRB3      30.15R
WINNER         FAIR      83  67  58 N9        29.98S
$$

SDZ004>011-016>023-039-040-221700-
NORTHEAST SOUTH DAKOTA

CITY           SKY/WX    TMP DP  RH WIND       PRES   REMARKS
ABERDEEN       SUNNY     80  68  66 N7        29.92R
WATERTOWN      PTSUNNY   75  69  81 W5        29.91S
BROOKINGS      SUNNY     77  69  76 VRB6      29.92S
SISSETON         N/A     81  71  71 VRB3      29.87F
$$

SDZ017-020-022-023-036>040-048>070-221700-
SOUTHEAST SOUTH DAKOTA

CITY           SKY/WX    TMP DP  RH WIND       PRES   REMARKS
SIOUX FALLS    CLOUDY    80  72  76 VRB5      29.92S
HURON          MOSUNNY   77  70  79 MISG      29.93R
CHAMBERLAIN    SUNNY     83  70  64 CALM      29.96R
MITCHELL       MOSUNNY   80  71  74 W7        29.94R
YANKTON        CLOUDY    78  71  79 W9        29.93R
$$

ABBREVIATIONS USED IN REMARKS
   TC - TEMPERATURE IN CELSIUS
  WCI - WIND CHILL INDEX
   HX - HEAT INDEX
  VSB - VISIBILITY





USA.gov is the U.S. government's official web portal to all federal, state and local government web resources and services.